Location: Newark
(40.9833°N, 0.0333°W)
Time: 00:06:51
(UTC+00:00)

deb Explorer IX - Pass Details

Date: 01 November 2020
Orbit: 537 x 1105 km, 38.8° (Epoch: 03 December)

Event Time Altitude Azimuth Distance (km) Brightness Sun altitude
Rises 08:57:19 0° 279° (W) 3,627 ? 22.4°
Reaches altitude 10° 09:00:03 10° 271° (W) 2,755 ? 22.7°
Maximum altitude 09:06:07 36° 207° (SSW) 1,622 ? 23.5°
Drops below altitude 10° 09:12:37 10° 145° (SE) 2,947 ? 24.3°
Sets 09:15:38 0° 137° (SE) 3,909 ? 24.7°
